CDT,Max TemperatureF,Mean TemperatureF,Min TemperatureF,Max Dew PointF,MeanDew PointF,Min DewpointF,Max Humidity, Mean Humidity, Min Humidity, Max Sea Level PressureIn, Mean Sea Level PressureIn, Min Sea Level PressureIn, Max VisibilityMiles, Mean VisibilityMiles, Min VisibilityMiles, Max Wind SpeedMPH, Mean Wind SpeedMPH, Max Gust SpeedMPH,PrecipitationIn, CloudCover, Events, WindDirDegrees
2013-10-1,84,73,62,66,63,61,94,75,45,30.03,29.98,29.93,10,9,5,9,5,,0.00,3,,188
2013-10-2,80,72,64,70,65,61,94,85,61,30.07,30.01,29.95,10,8,2,10,4,23,0.41,3,Thunderstorm,156
2013-10-3,84,75,66,68,65,63,88,74,55,29.97,29.93,29.86,10,10,10,14,8,21,0.06,2,,179
2013-10-4,86,77,68,68,66,64,88,72,48,29.96,29.92,29.88,10,10,8,15,8,22,0.00,1,,173
2013-10-5,75,62,48,66,55,45,94,85,73,30.00,29.96,29.91,10,10,3,16,7,26,0.74,4,Thunderstorm,230
2013-10-6,57,50,44,45,40,36,87,66,48,29.98,29.93,29.89,10,10,10,18,8,24,0.00,4,,258
2013-10-7,68,58,48,50,44,41,87,68,43,30.16,30.10,29.99,10,10,7,8,4,,0.00,2,,309
2013-10-8,73,58,44,50,46,41,93,68,38,30.20,30.15,30.10,10,10,10,12,3,17,0.00,0,,154
2013-10-9,73,58,42,52,46,39,93,70,38,30.18,30.12,30.08,10,10,9,9,3,,0.00,0,,141
2013-10-10,77,64,50,55,51,46,88,70,44,30.15,30.07,29.99,10,10,9,10,3,,0.00,0,,150
2013-10-11,78,66,55,61,57,52,94,73,53,30.00,29.94,29.88,10,10,8,15,7,21,0.00,1,,164
2013-10-12,69,58,48,61,51,41,88,70,35,30.24,30.08,29.93,10,9,0,9,5,,0.11,2,,340
2013-10-13,69,56,44,46,40,36,93,62,28,30.42,30.33,30.25,10,9,0,14,2,20,0.00,2,,59
2013-10-14,66,56,46,57,44,36,88,63,45,30.33,30.19,30.01,10,10,2,9,4,16,0.03,2,,122
2013-10-15,62,56,50,59,53,39,88,80,62,30.06,29.98,29.91,10,9,1,10,7,,0.33,5,,250
2013-10-16,55,48,41,45,40,37,93,71,54,30.12,30.06,30.01,10,10,5,10,4,,0.00,4,,293
2013-10-17,62,54,46,46,42,37,93,69,39,30.04,30.00,29.95,10,10,9,13,5,17,0.01,2,,246
2013-10-18,55,47,39,43,37,34,93,71,47,30.12,30.06,29.99,10,10,10,9,4,,0.15,3,,341
2013-10-19,57,47,37,37,35,34,93,72,41,30.09,30.04,29.98,10,10,7,13,6,20,0.06,3,,250
2013-10-20,69,54,39,39,37,34,81,55,28,29.99,29.93,29.87,10,10,10,20,8,29,0.00,0,,215
2013-10-21,55,45,35,41,36,30,87,70,41,30.11,30.05,29.95,10,10,10,10,3,,0.00,3,,321
2013-10-22,62,48,33,43,35,30,87,71,45,30.08,30.00,29.87,10,10,2,16,4,25,0.00,3,,244
2013-10-23,48,40,33,34,30,27,87,62,43,30.19,30.12,30.06,10,10,10,12,4,16,0.00,4,,342
2013-10-24,50,40,28,34,27,21,86,59,32,30.44,30.31,30.13,10,10,10,12,4,21,0.00,3,,359
2013-10-25,55,40,24,28,24,19,93,57,26,30.52,30.41,30.21,10,10,8,13,2,,0.00,0,,187
2013-10-26,64,50,37,45,34,27,76,55,37,30.21,30.14,30.07,10,10,8,14,6,23,0.00,1,,273
2013-10-27,62,44,26,30,28,25,93,61,25,30.16,30.09,30.00,10,10,2,8,1,,0.00,0,,190
2013-10-28,69,51,33,52,39,28,93,72,37,30.21,30.15,30.05,10,9,0,8,1,,0.00,1,,163
2013-10-29,62,55,48,61,53,43,94,87,76,30.20,30.10,30.02,10,8,2,12,5,23,2.53,6,,150
2013-10-30,71,66,62,63,60,55,94,84,73,30.04,29.95,29.79,10,9,3,16,7,24,1.10,6,,182
2013-10-31,64,55,46,61,53,43,94,86,77,29.80,29.63,29.48,10,9,2,15,8,26,0.00,7,,246